Location: Possagno
(45.8500°N, 11.8667°E)
Time: 07:12:20
(UTC+00:00)

METEOR M2 - Visible Passes

Search period start: 28 October 2021 00:00
Search period end: 07 November 2021 00:00
Orbit: 820 x 826 km, 98.5° (Epoch: 27 October)

Date Brightness Start Highest point End Pass type
(mag) Time Alt. Az. Time Alt. Az. Time Alt. Az.
28 Oct ? 05:13:37 10° ENE 05:15:53 13° E 05:18:08 10° ESE visible
28 Oct ? 16:37:26 10° ESE 16:41:53 27° ENE 16:46:21 10° N visible
28 Oct ? 18:16:38 10° S 18:21:48 47° W 18:27:01 10° NNW visible
29 Oct ? 17:56:27 10° S 18:01:49 70° WSW 18:07:13 10° NNW visible
30 Oct ? 17:36:30 10° SSE 17:41:52 81° ENE 17:47:18 10° NNW visible
30 Oct ? 19:19:47 10° WSW 19:22:42 15° W 19:25:39 10° NW visible
31 Oct ? 17:16:46 10° SSE 17:22:01 56° ENE 17:27:18 10° N visible
31 Oct ? 18:58:27 10° SW 19:02:32 22° W 19:06:39 10° NW visible
01 Nov ? 16:57:15 10° SE 17:02:12 39° ENE 17:07:11 10° N visible
01 Nov ? 18:37:40 10° SSW 18:42:25 32° W 18:47:13 10° NNW visible
02 Nov ? 05:14:05 10° ENE 05:16:29 13° E 05:18:52 10° ESE visible
02 Nov ? 16:37:58 10° ESE 16:42:27 28° ENE 16:46:57 10° N visible
02 Nov ? 18:17:13 10° S 18:22:23 46° W 18:27:35 10° NNW visible
03 Nov ? 17:57:02 10° S 18:02:23 68° WSW 18:07:47 10° NNW visible
04 Nov ? 17:37:05 10° SSE 17:42:28 83° ENE 17:47:53 10° NNW visible
04 Nov ? 19:20:28 10° WSW 19:23:18 14° W 19:26:09 10° NW visible
05 Nov ? 17:17:20 10° SSE 17:22:35 57° ENE 17:27:53 10° N visible
05 Nov ? 18:59:06 10° SW 19:03:08 21° W 19:07:12 10° NW visible
06 Nov ? 16:57:48 10° SE 17:02:46 40° ENE 17:07:46 10° N visible
06 Nov ? 18:38:17 10° SSW 18:43:01 31° W 18:47:47 10° NNW visible
